TimeCST,TemperatureF,Dew PointF,Humidity,Sea Level PressureIn,VisibilityMPH,Wind Direction,Wind SpeedMPH,Gust SpeedMPH,PrecipitationIn,Events,Conditions,WindDirDegrees,DateUTC
12:54 AM,55.0,39.9,57,29.90,10.0,South,8.1,-,N/A,,Clear,170,2012-11-09 06:54:00
1:54 AM,55.0,39.9,57,29.89,10.0,SSE,8.1,-,N/A,,Clear,150,2012-11-09 07:54:00
2:54 AM,54.0,39.9,59,29.89,10.0,SSE,4.6,-,N/A,,Clear,160,2012-11-09 08:54:00
3:54 AM,53.1,39.9,61,29.88,10.0,Variable,3.5,-,N/A,,Clear,0,2012-11-09 09:54:00
4:54 AM,50.0,39.9,68,29.88,10.0,East,4.6,-,N/A,,Clear,100,2012-11-09 10:54:00
5:54 AM,51.1,41.0,68,29.88,10.0,Calm,Calm,-,N/A,,Clear,0,2012-11-09 11:54:00
6:54 AM,52.0,42.1,69,29.87,10.0,South,6.9,-,N/A,,Clear,170,2012-11-09 12:54:00
7:54 AM,53.1,44.1,71,29.88,10.0,South,5.8,-,N/A,,Clear,180,2012-11-09 13:54:00
8:54 AM,59.0,48.0,67,29.87,10.0,South,10.4,-,N/A,,Clear,180,2012-11-09 14:54:00
9:54 AM,63.0,50.0,63,29.86,10.0,South,10.4,-,N/A,,Clear,190,2012-11-09 15:54:00
10:54 AM,66.9,53.1,61,29.86,10.0,South,8.1,-,N/A,,Clear,180,2012-11-09 16:54:00
11:54 AM,72.0,55.0,55,29.81,10.0,SSW,11.5,-,N/A,,Clear,210,2012-11-09 17:54:00
12:54 PM,75.0,55.9,51,29.78,10.0,SSW,13.8,20.7,N/A,,Clear,200,2012-11-09 18:54:00
1:54 PM,75.0,57.0,53,29.76,10.0,South,12.7,19.6,N/A,,Clear,190,2012-11-09 19:54:00
2:54 PM,75.0,57.0,53,29.75,10.0,SSW,17.3,23.0,N/A,,Clear,200,2012-11-09 20:54:00
3:54 PM,73.9,57.0,55,29.75,10.0,South,15.0,23.0,N/A,,Clear,180,2012-11-09 21:54:00
4:54 PM,72.0,57.0,59,29.75,10.0,South,11.5,-,N/A,,Clear,180,2012-11-09 22:54:00
5:54 PM,70.0,57.0,63,29.76,10.0,South,9.2,-,N/A,,Clear,180,2012-11-09 23:54:00
6:54 PM,70.0,57.0,63,29.78,10.0,SSW,10.4,18.4,N/A,,Clear,200,2012-11-10 00:54:00
7:54 PM,69.1,57.0,65,29.78,10.0,South,10.4,-,N/A,,Partly Cloudy,190,2012-11-10 01:54:00
8:54 PM,68.0,57.0,68,29.79,10.0,South,10.4,-,N/A,,Clear,190,2012-11-10 02:54:00
9:54 PM,68.0,57.0,68,29.79,10.0,South,10.4,-,N/A,,Clear,190,2012-11-10 03:54:00
10:54 PM,66.9,57.0,70,29.78,10.0,South,10.4,20.7,N/A,,Clear,190,2012-11-10 04:54:00
11:54 PM,66.9,55.9,68,29.77,10.0,South,11.5,19.6,N/A,,Clear,190,2012-11-10 05:54:00